FW0428 Weather Reports


Display with metric or nautical units.
time (UTC)temp
F
wind
direction
speed
MPH
gust
MPH
rain 1hr
in
rain 24hr
in
rain mn
in
humidity
%
barometer
mb
20260505020110 72 128 0.0 1.0 0.00 0.00 0.00 68 1006.9
20260505013120 73 124 0.0 1.0 0.00 0.00 0.00 65 1006.7
20260505011621 74 96 0.0 3.0 0.00 0.00 0.00 64 1006.6
20260505010020 75 42 0.0 3.0 0.00 0.00 0.00 62 1006.7
20260505004651 76 98 0.0 5.0 0.00 0.00 0.00 60 1006.6
20260504231548 80 96 0.0 3.0 0.00 0.00 0.00 54 1007.3
20260504230032 80 47 1.0 10.0 0.00 0.00 0.00 52 1007.3
20260504224554 80 117 0.0 3.0 0.00 0.00 0.00 52 1007.6
20260504213002 82 74 1.0 5.0 0.00 0.00 0.00 47 1008.6
20260504210156 82 78 0.0 4.0 0.00 0.00 0.00 46 1009.2
20260504204658 82 75 0.0 8.0 0.00 0.00 0.00 45 1009.4
20260504203103 82 28 1.0 8.0 0.00 0.00 0.00 45 1009.8
20260504201608 82 36 1.0 5.0 0.00 0.00 0.00 47 1009.9
20260504200133 81 86 2.0 9.0 0.00 0.00 0.00 46 1010.2
20260504193056 81 67 1.0 8.0 0.00 0.00 0.00 45 1010.7
20260504190131 81 224 0.0 3.0 0.00 0.00 0.00 45 1011.2
20260504184604 81 263 1.0 7.0 0.00 0.00 0.00 47 1011.3
20260504183111 81 101 0.0 2.0 0.00 0.00 0.00 44 1011.5
20260504180035 79 76 1.0 6.0 0.00 0.00 0.00 46 1012.0
20260504173134 79 113 1.0 3.0 0.00 0.00 0.00 47 1012.7
20260504171526 77 71 0.0 7.0 0.00 0.00 0.00 49 1012.7
20260504100151 57 78 0.0 1.0 0.00 0.00 0.00 79 1013.7
20260504080107 60 16 0.0 5.0 0.00 0.00 0.00 72 1014.0
20260504050124 60 91 0.0 0.0 0.00 0.00 0.00 71 1015.6
20260504044657 61 91 0.0 0.0 0.00 0.00 0.00 69 1015.7
20260504041522 62 91 0.0 0.0 0.00 0.00 0.00 68 1015.7